Lid_Strength_Index
3 4 4 5 5 5 4 4 4 4 3 3 3 3 3 3 2 2 2 2 2 2 1 1 1 0 3 5 7 4 -1 1 4 4 5 5 5 5 7 6 6 7 8 8 7 8 7
3 4 4 5 5 5 5 4 4 4 3 3 2 2 2 3 2 2 2 2 2 2 2 1 1 1 4 8 4 4 4 4 5 5 5 5 5 5 6 6 7 5 6 7 7 7 7
3 4 5 5 5 5 5 4 4 4 3 3 2 2 2 2 2 2 2 2 2 2 2 1 0 3 6 8 4 4 4 5 5 5 5 5 5 6 5 6 5 6 7 7 7 7 7
4 4 5 5 6 5 5 4 4 4 3 3 3 2 2 2 2 2 2 2 2 2 1 1 1 4 8 4 3 4 4 5 4 4 5 5 5 6 6 5 6 8 8 10 7 7 7
4 4 5 6 6 5 5 4 4 4 3 2 2 2 2 3 2 2 2 2 2 1 1 1 4 4 8 3 5 4 5 7 6 5 5 5 6 7 7 9 10 9 11 10 10 8 8
4 4 5 6 6 5 4 4 3 3 2 2 2 2 2 2 2 3 3 3 1 3 4 4 5 7 6 8 6 5 4 5 7 7 7 7 8 9 9 10 13 12 11 10 9 10 9
4 4 5 5 5 5 4 4 3 2 2 2 2 2 2 2 2 3 3 5 6 7 6 8 8 8 7 5 4 5 4 6 6 7 9 8 9 11 11 10 10 10 10 11 9 10 11
4 5 5 5 5 5 4 3 2 2 2 2 2 2 2 2 2 3 3 4 5 4 8 6 6 6 5 5 7 6 4 7 7 9 8 9 10 10 9 9 10 10 10 10 9 9 11
4 5 5 5 5 4 4 3 2 2 2 3 2 2 3 3 2 1 2 3 2 1 7 8 7 7 6 6 7 7 5 7 8 9 9 10 10 9 9 9 10 10 11 11 11 10 10
4 5 5 5 5 5 4 4 3 2 2 2 3 3 4 1 3 1 3 2 0 -0 8 10 8 7 5 5 7 4 4 5 6 8 8 9 8 9 9 10 10 11 9 10 10 11 14
5 5 5 5 6 5 4 3 3 3 3 3 3 3 2 2 0 2 2 1 0 1 17 8 8 3 4 5 5 4 2 4 7 7 7 9 9 9 9 9 8 10 8 9 10 11 11
5 5 5 6 6 5 4 3 3 3 3 4 4 1 1 1 -0 1 1 0 1 10 16 10 6 6 6 5 5 4 4 3 4 7 6 7 5 7 8 7 7 7 9 9 9 10 14
5 5 5 6 5 5 4 4 4 4 4 4 2 2 1 -1 2 -1 -1 2 10 17 9 10 8 6 7 7 7 6 7 7 9 11 12 8 8 7 8 10 8 9 11 14 15 15 15
5 5 5 5 5 5 4 4 4 4 4 3 2 3 0 -0 -1 -2 1 6 16 11 10 6 7 7 9 7 7 7 7 9 7 8 10 12 14 10 9 11 12 11 12 15 19 17 15
5 5 4 4 5 5 4 4 4 4 4 3 3 -1 1 -1 -2 -1 4 14 12 9 8 8 7 9 9 8 8 8 8 9 8 8 12 12 13 9 10 10 10 11 12 10 15 14 15
5 5 4 5 5 5 4 4 4 4 3 3 2 1 3 -1 -3 1 6 11 9 7 6 6 9 8 10 9 9 8 9 8 9 7 7 9 13 9 9 9 9 11 10 14 13 19 18
5 5 5 6 6 6 4 4 5 3 3 3 1 3 1 -1 -1 4 11 9 8 7 6 7 8 9 8 9 8 9 9 8 7 8 7 8 10 11 10 11 12 11 12 13 13 14 17
5 5 5 5 6 6 5 5 5 3 3 4 2 5 1 -1 6 6 8 8 9 7 5 6 6 7 8 8 9 9 9 8 6 7 9 7 10 13 11 9 9 10 11 13 16 16 14
5 5 5 5 6 6 6 6 5 3 3 2 4 4 0 0 10 7 7 8 7 7 7 6 7 6 6 8 10 9 8 6 6 8 9 8 10 14 13 11 10 12 10 11 13 13 16
5 5 6 6 4 7 6 6 4 2 2 2 3 9 4 4 4 6 8 8 9 7 7 6 6 6 7 8 7 9 9 7 6 7 9 9 10 12 15 14 12 13 12 11 13 17 16
5 6 6 4 5 7 6 5 2 2 2 2 3 6 4 9 6 6 7 8 9 9 7 6 7 7 8 10 9 9 8 8 6 7 8 9 12 11 12 12 12 13 12 12 13 14 16
6 6 5 5 5 4 4 4 3 2 3 2 5 5 5 6 7 7 8 8 9 9 9 9 9 7 7 8 8 9 8 8 8 7 8 8 12 13 15 11 11 13 12 12 12 13 13
4 4 4 4 4 4 4 5 3 3 4 2 3 2 3 7 7 7 8 8 8 8 7 8 8 7 8 7 6 6 6 6 6 8 8 9 11 13 15 12 12 15 13 13 12 12 14
5 5 5 5 5 5 5 5 4 3 3 0 1 2 5 7 7 8 8 8 8 8 9 7 7 8 5 4 5 5 5 6 6 6 7 9 11 12 15 13 18 12 11 12 14 13 13
6 6 5 5 5 5 5 6 5 3 3 1 2 2 4 7 7 8 8 7 7 7 8 8 7 5 4 6 8 9 10 9 8 7 7 8 10 13 15 15 13 10 11 13 15 15 11
6 6 6 5 5 5 5 6 6 4 3 1 0 0 3 5 7 6 7 7 7 7 7 7 6 4 5 7 9 13 14 11 12 11 8 9 9 12 13 16 18 13 10 9 11 16 10
7 7 6 6 5 6 6 6 6 5 4 2 1 -1 2 5 4 6 7 6 6 6 7 7 6 7 5 8 11 12 12 9 13 14 13 12 11 13 13 15 13 11 10 10 17 14 10
7 7 7 6 6 6 6 6 6 6 5 5 2 1 4 5 4 5 4 5 6 6 7 5 7 6 7 10 10 10 11 10 11 11 13 14 14 13 12 15 16 9 11 14 9 8 9
6 6 6 6 6 6 6 6 6 6 6 5 4 3 3 6 6 3 4 3 3 3 5 4 6 6 6 8 8 8 10 9 10 14 9 13 12 12 11 13 8 8 10 8 8 9 9